Location: Izdebno
(52.6670°N, 16.2170°E)
Time: 02:54:05
(UTC+02:00)

SR - Pass Details

Date: 29 February 2024
Orbit: 577 x 862 km, 66.7° (Epoch: 22 April)

Event Time Altitude Azimuth Distance (km) Brightness Sun altitude
Rises 17:43:18 0° 284° (WNW) 3,403 ? -2.4°
Reaches altitude 10° 17:46:31 10° 301° (WNW) 2,433 ? -2.9°
Maximum altitude 17:50:33 20° 347° (NNW) 1,786 ? -3.5°
Drops below altitude 10° 17:54:25 10° 34° (NE) 2,310 ? -4.1°
Enters shadow 17:57:15 - 51° (NE) 3,136 ? -4.5°
Sets 17:57:23 0° 52° (NE) 3,179 - -4.5°
